Weather History for Great Bend, KS

Change the Weather History Date:

Saturday, February 18, 2012

  Actual Average Record
Temperature  
Mean Temperature 35 °F -  
Max Temperature 42 °F 48 °F 73 °F (2014)
Min Temperature 28 °F 27 °F 35 °F (2014)
Degree Days  
Heating Degree Days 30    
Moisture  
Dew Point 22 °F    
Average Humidity 62    
Maximum Humidity 80    
Minimum Humidity 39    
Precipitation  
Precipitation 0.00 in - - ()
Sea Level Pressure  
Sea Level Pressure 30.16 in    
Wind  
Wind Speed 10 mph (ENE)    
Max Wind Speed 16 mph    
Max Gust Speed 22 mph    
Visibility 10 miles    
Events      
Averages and records for this station are not official NWS values.
T = Trace of Precipitation, MM = Missing Value Source: NWS Daily Summary

Daily Weather History Graph

Daily Weather History Graph

Search for Another Location

Airport:

Trip Planner

Search our weather history database for the weather conditions in past years. The results will help you decide how hot, cold, wet, or windy it might be!

Date:

Astronomy

Feb. 18, 2012 Rise Set
Actual Time 7:22 AM CST 6:16 PM CST
Civil Twilight 6:55 AM CST 6:43 PM CST
Nautical Twilight 6:24 AM CST 7:14 PM CST
Astronomical Twilight 5:54 AM CST 7:45 PM CST
Moon 5:01 AM CST (2/18) 3:16 PM CST (2/18)
Length of Visible Light 11h 47m
Length of Day
10h 53m
Waning Crescent, 11% of the Moon is Illuminated
Feb 18
Waning Crescent
Feb 21
New
Feb 29
First Quarter
Mar 8
Full
Mar 14
Last Quarter

Hourly Weather History & Observations

Time (CST) Temp. Windchill Dew Point Humidity Pressure Visibility Wind Dir Wind Speed Gust Speed Precip Events Conditions
12:15 AM 33.8 °F 27.0 °F 26.6 °F 75% 30.17 in 10.0 mi NE 8.1 mph - N/A   Overcast
12:35 AM 33.8 °F 25.8 °F 26.6 °F 75% 30.17 in 10.0 mi NE 10.4 mph - N/A   Overcast
12:55 AM 33.8 °F 25.8 °F 26.6 °F 75% 30.16 in 10.0 mi NE 10.4 mph - N/A   Overcast
1:15 AM 33.8 °F 26.4 °F 26.6 °F 75% 30.16 in 10.0 mi NE 9.2 mph - N/A   Overcast
1:35 AM 33.8 °F 24.8 °F 26.6 °F 75% 30.17 in 10.0 mi NE 12.7 mph - N/A   Overcast
1:55 AM 33.8 °F 24.8 °F 26.6 °F 75% 30.17 in 10.0 mi NE 12.7 mph 17.3 mph N/A   Overcast
2:15 AM 33.8 °F 25.3 °F 26.6 °F 75% 30.17 in 10.0 mi NE 11.5 mph - N/A   Overcast
2:35 AM 33.8 °F 24.8 °F 26.6 °F 75% 30.17 in 10.0 mi NE 12.7 mph - N/A   Overcast
2:55 AM 33.8 °F 23.9 °F 26.6 °F 75% 30.17 in 10.0 mi NE 15.0 mph - N/A   Overcast
3:15 AM 33.8 °F 23.5 °F 26.6 °F 75% 30.17 in 10.0 mi NE 16.1 mph - N/A   Overcast
3:35 AM 32.0 °F 22.5 °F 26.6 °F 80% 30.17 in 10.0 mi NE 12.7 mph 19.6 mph N/A   Overcast
3:55 AM 32.0 °F 21.6 °F 26.6 °F 80% 30.18 in 10.0 mi NE 15.0 mph - N/A   Overcast
4:15 AM 32.0 °F 22.1 °F 24.8 °F 75% 30.18 in 10.0 mi NE 13.8 mph 21.9 mph N/A   Overcast
4:35 AM 30.2 °F 20.2 °F 24.8 °F 80% 30.18 in 10.0 mi NE 12.7 mph - N/A   Overcast
4:55 AM 30.2 °F 19.8 °F 24.8 °F 80% 30.18 in 10.0 mi NE 13.8 mph 18.4 mph N/A   Overcast
5:15 AM 30.2 °F 20.8 °F 23.0 °F 75% 30.19 in 10.0 mi NE 11.5 mph - N/A   Overcast
5:35 AM 30.2 °F 20.2 °F 23.0 °F 75% 30.19 in 10.0 mi NE 12.7 mph 17.3 mph N/A   Overcast
5:55 AM 28.4 °F 18.0 °F 21.2 °F 74% 30.19 in 10.0 mi NE 12.7 mph - N/A   Overcast
6:15 AM 28.4 °F 18.5 °F 21.2 °F 74% 30.19 in 10.0 mi ENE 11.5 mph - N/A   Overcast
6:35 AM 28.4 °F 19.1 °F 21.2 °F 74% 30.20 in 10.0 mi ENE 10.4 mph - N/A   Overcast
6:55 AM 28.4 °F 19.1 °F 21.2 °F 74% 30.20 in 10.0 mi ENE 10.4 mph - N/A   Scattered Clouds
7:15 AM 28.4 °F 18.0 °F 21.2 °F 74% 30.22 in 10.0 mi NE 12.7 mph - N/A   Mostly Cloudy
7:35 AM 28.4 °F 18.5 °F 21.2 °F 74% 30.22 in 10.0 mi ENE 11.5 mph - N/A   Overcast
7:55 AM 28.4 °F 19.1 °F 21.2 °F 74% 30.22 in 10.0 mi NE 10.4 mph - N/A   Mostly Cloudy
8:15 AM 28.4 °F 19.7 °F 21.2 °F 74% 30.22 in 10.0 mi NE 9.2 mph - N/A   Mostly Cloudy
8:35 AM 28.4 °F 20.4 °F 21.2 °F 74% 30.22 in 10.0 mi NE 8.1 mph - N/A   Scattered Clouds
9:15 AM 30.2 °F 21.9 °F 21.2 °F 69% 30.23 in 10.0 mi NE 9.2 mph - N/A   Clear
9:35 AM 30.2 °F 20.2 °F 19.4 °F 64% 30.22 in 10.0 mi NE 12.7 mph - N/A   Clear
9:55 AM 30.2 °F 20.8 °F 19.4 °F 64% 30.22 in 10.0 mi ENE 11.5 mph - N/A   Partly Cloudy
10:15 AM 32.0 °F 23.6 °F 19.4 °F 60% 30.22 in 10.0 mi ENE 10.4 mph - N/A   Mostly Cloudy
10:35 AM 32.0 °F 23.0 °F 19.4 °F 60% 30.21 in 10.0 mi ENE 11.5 mph - N/A   Scattered Clouds
10:55 AM 33.8 °F 25.8 °F 19.4 °F 56% 30.20 in 10.0 mi ENE 10.4 mph - N/A   Partly Cloudy
11:15 AM 33.8 °F 25.8 °F 21.2 °F 60% 30.20 in 10.0 mi ENE 10.4 mph 16.1 mph N/A   Clear
11:35 AM 33.8 °F 25.8 °F 19.4 °F 56% 30.19 in 10.0 mi NE 10.4 mph - N/A   Clear
11:55 AM 35.6 °F 27.5 °F 19.4 °F 52% 30.19 in 10.0 mi NE 11.5 mph - N/A   Scattered Clouds
12:15 PM 37.4 °F 30.3 °F 21.2 °F 52% 30.18 in 10.0 mi NE 10.4 mph - N/A   Scattered Clouds
12:35 PM 37.4 °F 31.4 °F 21.2 °F 52% 30.16 in 10.0 mi NE 8.1 mph - N/A   Mostly Cloudy
12:55 PM 37.4 °F 32.1 °F 21.2 °F 52% 30.15 in 10.0 mi NNE 6.9 mph - N/A   Overcast
1:15 PM 39.2 °F 35.0 °F 21.2 °F 49% 30.14 in 10.0 mi NE 5.8 mph - N/A   Overcast
1:35 PM 39.2 °F 33.0 °F 21.2 °F 49% 30.12 in 10.0 mi ENE 9.2 mph - N/A   Overcast
1:55 PM 39.2 °F 33.0 °F 19.4 °F 45% 30.12 in 10.0 mi NNE 9.2 mph - N/A   Overcast
2:15 PM 39.2 °F 33.6 °F 19.4 °F 45% 30.11 in 10.0 mi ENE 8.1 mph - N/A   Mostly Cloudy
2:35 PM 42.8 °F 37.5 °F 21.2 °F 42% 30.10 in 10.0 mi NE 9.2 mph - N/A   Partly Cloudy
3:15 PM 42.8 °F 38.0 °F 21.2 °F 42% 30.10 in 10.0 mi NE 8.1 mph - N/A   Clear
3:35 PM 42.8 °F 38.0 °F 19.4 °F 39% 30.10 in 10.0 mi NE 8.1 mph - N/A   Clear
3:55 PM 42.8 °F 38.0 °F 19.4 °F 39% 30.09 in 10.0 mi ENE 8.1 mph - N/A   Mostly Cloudy
4:15 PM 42.8 °F 37.0 °F 19.4 °F 39% 30.08 in 10.0 mi ENE 10.4 mph - N/A   Overcast
4:35 PM 42.8 °F 38.0 °F 19.4 °F 39% 30.08 in 10.0 mi ENE 8.1 mph - N/A   Mostly Cloudy
4:55 PM 42.8 °F 37.5 °F 21.2 °F 42% 30.09 in 10.0 mi East 9.2 mph - N/A   Scattered Clouds
5:15 PM 42.8 °F 37.5 °F 21.2 °F 42% 30.09 in 10.0 mi East 9.2 mph - N/A   Mostly Cloudy
5:35 PM 42.8 °F 37.5 °F 21.2 °F 42% 30.09 in 10.0 mi East 9.2 mph - N/A   Overcast
5:55 PM 41.0 °F 35.2 °F 19.4 °F 42% 30.09 in 10.0 mi East 9.2 mph - N/A   Mostly Cloudy
6:15 PM 39.2 °F 33.6 °F 19.4 °F 45% 30.10 in 10.0 mi East 8.1 mph - N/A   Clear
6:35 PM 37.4 °F 32.8 °F 19.4 °F 48% 30.10 in 10.0 mi East 5.8 mph - N/A   Clear
7:15 PM 33.8 °F 30.8 °F 17.6 °F 52% 30.11 in 10.0 mi ESE 3.5 mph - N/A   Clear
7:35 PM 33.8 °F 29.6 °F 17.6 °F 52% 30.11 in 10.0 mi ESE 4.6 mph - N/A   Clear
7:55 PM 33.8 °F 30.8 °F 19.4 °F 56% 30.11 in 10.0 mi ESE 3.5 mph - N/A   Clear
8:15 PM 30.2 °F 26.7 °F 19.4 °F 64% 30.11 in 10.0 mi ESE 3.5 mph - N/A   Clear
8:35 PM 30.2 °F 26.7 °F 19.4 °F 64% 30.10 in 10.0 mi ESE 3.5 mph - N/A   Clear
8:55 PM 30.2 °F 26.7 °F 19.4 °F 64% 30.11 in 10.0 mi ESE 3.5 mph - N/A   Clear
9:15 PM 28.4 °F - 17.6 °F 64% 30.11 in 10.0 mi Calm Calm - N/A   Clear
9:35 PM 28.4 °F - 19.4 °F 69% 30.11 in 10.0 mi Calm Calm - N/A   Clear
10:15 PM 26.6 °F - 19.4 °F 74% 30.10 in 10.0 mi Calm Calm - N/A   Clear
10:35 PM 24.8 °F - 17.6 °F 74% 30.10 in 10.0 mi Calm Calm - N/A   Clear
10:55 PM 24.8 °F - 19.4 °F 80% 30.10 in 10.0 mi Calm Calm - N/A   Clear
11:15 PM 24.8 °F - 17.6 °F 74% 30.10 in 10.0 mi Calm Calm - N/A   Clear
11:35 PM 24.8 °F - 19.4 °F 80% 30.10 in 10.0 mi Calm Calm - N/A   Clear
11:55 PM 23.0 °F - 17.6 °F 80% 30.10 in 10.0 mi Calm Calm - N/A   Clear